| time (UTC) | temp C | wind direction | speed KPH | gust KPH | rain 1hr cm | rain 24hr cm | rain mn cm | humidity % | barometer mb |
| 20260905184714 | 30 | 313 | 0.0 | 3.2 | 0.00 | 0.79 | 0.48 | 88 | 1013.5 |
| 20260905183635 | 30 | 313 | 1.6 | 4.8 | 0.00 | 0.79 | 0.48 | 88 | 1013.5 |
| 20260905183132 | 30 | 357 | 1.6 | 4.8 | 0.00 | 0.79 | 0.48 | 88 | 1013.5 |
| 20260905182557 | 30 | 5 | 0.0 | 4.8 | 0.00 | 0.79 | 0.48 | 88 | 1013.9 |
| 20260905182053 | 29 | 0 | 1.6 | 6.4 | 0.00 | 0.79 | 0.48 | 86 | 1013.9 |
| 20260905181550 | 28 | 267 | 1.6 | 6.4 | 0.00 | 0.79 | 0.48 | 87 | 1013.9 |
| 20260905181047 | 28 | 267 | 1.6 | 6.4 | 0.00 | 0.79 | 0.48 | 90 | 1013.9 |
| 20260905180526 | 28 | 256 | 3.2 | 6.4 | 0.00 | 0.79 | 0.48 | 92 | 1014.2 |
| 20260905180004 | 27 | 284 | 1.6 | 3.2 | 0.00 | 0.79 | 0.48 | 91 | 1014.2 |
| 20260905175500 | 27 | 292 | 1.6 | 3.2 | 0.00 | 0.79 | 0.48 | 93 | 1014.2 |
| 20260905174958 | 26 | 294 | 1.6 | 1.6 | 0.00 | 0.79 | 0.48 | 92 | 1014.2 |
| 20260905174455 | 26 | 294 | 0.0 | 0.0 | 0.00 | 0.79 | 0.48 | 93 | 1014.2 |
| 20260905173952 | 26 | 294 | 0.0 | 0.0 | 0.00 | 0.79 | 0.48 | 93 | 1014.6 |
| 20260905173449 | 26 | 294 | 0.0 | 3.2 | 0.00 | 0.79 | 0.48 | 91 | 1014.6 |
| 20260905172946 | 26 | 294 | 0.0 | 12.9 | 0.03 | 0.79 | 0.48 | 90 | 1014.9 |
| 20260905172353 | 26 | 294 | 0.0 | 12.9 | 0.08 | 0.79 | 0.48 | 89 | 1014.9 |
| 20260905171850 | 26 | 232 | 0.0 | 12.9 | 0.15 | 0.79 | 0.48 | 88 | 1015.2 |
| 20260905171328 | 27 | 247 | 3.2 | 12.9 | 0.18 | 0.79 | 0.48 | 89 | 1015.2 |
| 20260905170825 | 28 | 244 | 3.2 | 6.4 | 0.23 | 0.79 | 0.48 | 91 | 1015.2 |
| 20260905170322 | 28 | 296 | 0.0 | 1.6 | 0.43 | 0.79 | 0.48 | 92 | 1014.9 |
| 20260905165759 | 28 | 296 | 1.6 | 3.2 | 0.48 | 0.79 | 0.48 | 93 | 1015.2 |
| 20260905165256 | 28 | 296 | 0.0 | 3.2 | 0.48 | 0.79 | 0.48 | 91 | 1014.9 |
| 20260905164753 | 28 | 296 | 0.0 | 3.2 | 0.48 | 0.79 | 0.48 | 91 | 1014.9 |
| 20260905164251 | 28 | 296 | 0.0 | 3.2 | 0.48 | 0.79 | 0.48 | 91 | 1014.9 |
| 20260905163747 | 28 | 297 | 0.0 | 4.8 | 0.48 | 0.79 | 0.48 | 89 | 1014.6 |
| 20260905163243 | 29 | 297 | 0.0 | 8.0 | 0.46 | 0.76 | 0.46 | 88 | 1014.6 |
| 20260905162740 | 30 | 297 | 0.0 | 8.0 | 0.46 | 0.76 | 0.46 | 87 | 1014.9 |
| 20260905162207 | 30 | 283 | 3.2 | 8.0 | 0.36 | 0.66 | 0.38 | 88 | 1014.9 |
| 20260905161633 | 30 | 259 | 4.8 | 8.0 | 0.33 | 0.64 | 0.33 | 87 | 1014.9 |
| 20260905161130 | 31 | 7 | 1.6 | 6.4 | 0.30 | 0.61 | 0.30 | 86 | 1014.9 |
| 20260905160609 | 31 | 10 | 1.6 | 8.0 | 0.18 | 0.48 | 0.18 | 85 | 1014.9 |
| 20260905160106 | 31 | 58 | 3.2 | 12.9 | 0.00 | 0.30 | 0.00 | 81 | 1014.6 |
| 20260905155602 | 31 | 37 | 3.2 | 12.9 | 0.00 | 0.30 | 0.00 | 82 | 1014.6 |
| 20260905155058 | 31 | 59 | 3.2 | 12.9 | 0.00 | 0.30 | 0.00 | 81 | 1014.6 |
| 20260905154525 | 31 | 53 | 3.2 | 12.9 | 0.00 | 0.30 | 0.00 | 79 | 1014.6 |
| 20260905154022 | 31 | 44 | 3.2 | 6.4 | 0.00 | 0.30 | 0.00 | 82 | 1014.6 |
| 20260905153519 | 31 | 36 | 0.0 | 3.2 | 0.00 | 0.30 | 0.00 | 81 | 1014.2 |
| 20260905153016 | 30 | 27 | 1.6 | 3.2 | 0.00 | 0.30 | 0.00 | 83 | 1014.6 |
| 20260905152513 | 30 | 299 | 1.6 | 4.8 | 0.00 | 0.30 | 0.00 | 84 | 1014.6 |
| 20260905152001 | 30 | 270 | 0.0 | 4.8 | 0.00 | 0.30 | 0.00 | 86 | 1014.6 |
| 20260905151457 | 30 | 270 | 0.0 | 4.8 | 0.00 | 0.30 | 0.00 | 84 | 1014.6 |
| 20260905150954 | 30 | 270 | 1.6 | 4.8 | 0.00 | 0.30 | 0.00 | 86 | 1014.6 |
| 20260905150423 | 29 | 273 | 3.2 | 4.8 | 0.00 | 0.30 | 0.00 | 86 | 1014.6 |
| 20260905145915 | 29 | 81 | 0.0 | 0.0 | 0.00 | 0.30 | 0.00 | 87 | 1014.6 |
| 20260905145341 | 28 | 81 | 0.0 | 0.0 | 0.00 | 0.30 | 0.00 | 87 | 1014.6 |
| 20260905144838 | 28 | 81 | 0.0 | 0.0 | 0.00 | 0.30 | 0.00 | 87 | 1014.6 |
| 20260905144335 | 28 | 81 | 0.0 | 0.0 | 0.00 | 0.30 | 0.00 | 88 | 1014.6 |
| 20260905143832 | 28 | 81 | 0.0 | 1.6 | 0.00 | 0.30 | 0.00 | 88 | 1014.6 |
| 20260905143329 | 28 | 81 | 0.0 | 1.6 | 0.00 | 0.30 | 0.00 | 89 | 1014.6 |
| 20260905142826 | 28 | 81 | 0.0 | 3.2 | 0.00 | 0.30 | 0.00 | 89 | 1014.6 |
| 20260905142322 | 28 | 81 | 0.0 | 3.2 | 0.00 | 0.30 | 0.00 | 90 | 1014.6 |
| 20260905141819 | 28 | 81 | 0.0 | 3.2 | 0.00 | 0.30 | 0.00 | 91 | 1014.6 |
| 20260905141245 | 28 | 81 | 1.6 | 3.2 | 0.00 | 0.30 | 0.00 | 91 | 1014.6 |
| 20260905140742 | 27 | 81 | 0.0 | 3.2 | 0.00 | 0.30 | 0.00 | 91 | 1014.2 |
| 20260905140239 | 27 | 81 | 1.6 | 3.2 | 0.00 | 0.30 | 0.00 | 92 | 1014.2 |
| 20260905135230 | 27 | 81 | 1.6 | 3.2 | 0.00 | 0.30 | 0.00 | 93 | 1014.2 |
| 20260905134727 | 27 | 81 | 0.0 | 3.2 | 0.00 | 0.30 | 0.00 | 94 | 1014.2 |
| 20260905134224 | 27 | 81 | 1.6 | 3.2 | 0.00 | 0.30 | 0.00 | 94 | 1014.2 |
| 20260905133721 | 27 | 81 | 0.0 | 1.6 | 0.00 | 0.30 | 0.00 | 95 | 1014.2 |
| 20260905133218 | 27 | 81 | 1.6 | 1.6 | 0.00 | 0.30 | 0.00 | 95 | 1014.2 |
| 20260905132637 | 27 | 81 | 0.0 | 1.6 | 0.00 | 0.30 | 0.00 | 95 | 1014.2 |
| 20260905132103 | 26 | 81 | 1.6 | 1.6 | 0.00 | 0.30 | 0.00 | 95 | 1014.2 |
| 20260905131600 | 26 | 81 | 1.6 | 1.6 | 0.00 | 0.30 | 0.00 | 95 | 1014.2 |
| 20260905131057 | 26 | 81 | 0.0 | 1.6 | 0.00 | 0.30 | 0.00 | 96 | 1014.2 |
| 20260905130522 | 26 | 81 | 0.0 | 0.0 | 0.00 | 0.30 | 0.00 | 96 | 1014.2 |
| 20260905130019 | 26 | 81 | 0.0 | 0.0 | 0.00 | 0.30 | 0.00 | 95 | 1014.2 |
| 20260905125516 | 26 | 81 | 0.0 | 0.0 | 0.00 | 0.30 | 0.00 | 95 | 1013.9 |
| 20260905125013 | 26 | 81 | 0.0 | 0.0 | 0.00 | 0.30 | 0.00 | 96 | 1013.9 |
| 20260905124510 | 25 | 81 | 0.0 | 0.0 | 0.00 | 0.30 | 0.00 | 95 | 1013.9 |
| 20260905124007 | 25 | 81 | 0.0 | 0.0 | 0.00 | 0.30 | 0.00 | 95 | 1013.5 |
| 20260905123503 | 25 | 81 | 0.0 | 0.0 | 0.00 | 0.30 | 0.00 | 95 | 1013.5 |
| 20260905123001 | 25 | 81 | 0.0 | 0.0 | 0.00 | 0.30 | 0.00 | 95 | 1013.5 |
| 20260905122457 | 25 | 81 | 0.0 | 0.0 | 0.00 | 0.30 | 0.00 | 95 | 1013.5 |
| 20260905121954 | 25 | 81 | 0.0 | 0.0 | 0.00 | 0.30 | 0.00 | 95 | 1013.5 |
| 20260905121432 | 25 | 81 | 0.0 | 0.0 | 0.00 | 0.30 | 0.00 | 95 | 1013.5 |
| 20260905120911 | 25 | 81 | 0.0 | 0.0 | 0.00 | 0.30 | 0.00 | 95 | 1013.5 |
| 20260905120408 | 25 | 81 | 0.0 | 0.0 | 0.00 | 0.30 | 0.00 | 95 | 1013.5 |
| 20260905115905 | 25 | 81 | 0.0 | 0.0 | 0.00 | 0.30 | 0.00 | 95 | 1013.2 |
| 20260905115259 | 25 | 81 | 0.0 | 0.0 | 0.00 | 0.30 | 0.00 | 95 | 1013.2 |
| 20260905114756 | 25 | 81 | 0.0 | 0.0 | 0.00 | 0.30 | 0.00 | 95 | 1013.2 |
| 20260905114215 | 25 | 81 | 0.0 | 0.0 | 0.00 | 0.30 | 0.00 | 95 | 1013.2 |
| 20260905113710 | 25 | 81 | 0.0 | 0.0 | 0.00 | 0.30 | 0.00 | 95 | 1013.2 |
| 20260905113206 | 25 | 81 | 0.0 | 0.0 | 0.00 | 0.30 | 0.00 | 95 | 1013.2 |
| 20260905112657 | 25 | 81 | 0.0 | 0.0 | 0.00 | 0.30 | 0.00 | 95 | 1013.2 |
| 20260905112154 | 25 | 81 | 0.0 | 0.0 | 0.00 | 0.30 | 0.00 | 95 | 1013.2 |
| 20260905111616 | 25 | 81 | 0.0 | 0.0 | 0.00 | 0.30 | 0.00 | 95 | 1012.9 |
| 20260905111042 | 25 | 81 | 0.0 | 0.0 | 0.00 | 0.30 | 0.00 | 95 | 1012.9 |
| 20260905110538 | 25 | 81 | 0.0 | 0.0 | 0.00 | 0.30 | 0.00 | 95 | 1012.9 |
| 20260905110036 | 25 | 81 | 0.0 | 0.0 | 0.00 | 0.30 | 0.00 | 95 | 1012.9 |
| 20260905105533 | 25 | 81 | 0.0 | 0.0 | 0.00 | 0.30 | 0.00 | 95 | 1012.9 |
| 20260905105030 | 25 | 81 | 0.0 | 0.0 | 0.00 | 0.30 | 0.00 | 95 | 1012.9 |
| 20260905104527 | 25 | 81 | 0.0 | 0.0 | 0.00 | 0.30 | 0.00 | 95 | 1012.9 |
| 20260905104024 | 25 | 81 | 0.0 | 0.0 | 0.00 | 0.30 | 0.00 | 95 | 1012.9 |
| 20260905103521 | 25 | 81 | 0.0 | 0.0 | 0.00 | 0.30 | 0.00 | 95 | 1012.9 |
| 20260905102928 | 25 | 81 | 0.0 | 0.0 | 0.00 | 0.30 | 0.00 | 95 | 1012.9 |
| 20260905102425 | 25 | 81 | 0.0 | 0.0 | 0.00 | 0.30 | 0.00 | 95 | 1012.9 |
| 20260905101922 | 25 | 81 | 0.0 | 0.0 | 0.00 | 0.30 | 0.00 | 95 | 1012.9 |
| 20260905101419 | 25 | 81 | 0.0 | 0.0 | 0.00 | 0.30 | 0.00 | 95 | 1012.9 |
| 20260905100916 | 26 | 81 | 0.0 | 0.0 | 0.00 | 0.30 | 0.00 | 95 | 1012.9 |
| 20260905100311 | 26 | 81 | 0.0 | 0.0 | 0.00 | 0.30 | 0.00 | 95 | 1012.9 |
| 20260905095807 | 26 | 81 | 0.0 | 0.0 | 0.00 | 0.30 | 0.00 | 95 | 1012.9 |
| 20260905095306 | 26 | 81 | 0.0 | 0.0 | 0.00 | 0.30 | 0.00 | 95 | 1012.9 |
| 20260905094802 | 25 | 81 | 0.0 | 0.0 | 0.00 | 0.30 | 0.00 | 95 | 1012.9 |
| 20260905094259 | 25 | 81 | 0.0 | 0.0 | 0.00 | 0.30 | 0.00 | 94 | 1012.9 |
| 20260905093756 | 25 | 81 | 0.0 | 0.0 | 0.00 | 0.30 | 0.00 | 94 | 1012.9 |
| 20260905093222 | 25 | 81 | 0.0 | 0.0 | 0.00 | 0.30 | 0.00 | 94 | 1012.9 |
| 20260905092647 | 25 | 81 | 0.0 | 0.0 | 0.00 | 0.30 | 0.00 | 94 | 1012.9 |
| 20260905092144 | 26 | 81 | 0.0 | 0.0 | 0.00 | 0.30 | 0.00 | 94 | 1012.9 |
| 20260905091642 | 25 | 81 | 0.0 | 0.0 | 0.00 | 0.30 | 0.00 | 94 | 1012.9 |
| 20260905091138 | 25 | 81 | 0.0 | 0.0 | 0.00 | 0.30 | 0.00 | 94 | 1012.9 |
| 20260905090636 | 25 | 81 | 0.0 | 0.0 | 0.00 | 0.30 | 0.00 | 94 | 1012.9 |
| 20260905090133 | 25 | 81 | 0.0 | 0.0 | 0.00 | 0.30 | 0.00 | 94 | 1012.9 |
| 20260905085630 | 25 | 81 | 0.0 | 0.0 | 0.00 | 0.30 | 0.00 | 94 | 1012.9 |
| 20260905085127 | 25 | 81 | 0.0 | 0.0 | 0.00 | 0.30 | 0.00 | 94 | 1012.9 |
| 20260905084624 | 25 | 81 | 0.0 | 0.0 | 0.00 | 0.30 | 0.00 | 94 | 1012.5 |
| 20260905084121 | 25 | 81 | 0.0 | 0.0 | 0.00 | 0.30 | 0.00 | 94 | 1012.5 |
| 20260905083559 | 25 | 81 | 0.0 | 0.0 | 0.00 | 0.30 | 0.00 | 94 | 1012.5 |
| 20260905083056 | 26 | 81 | 0.0 | 0.0 | 0.00 | 0.30 | 0.00 | 94 | 1012.5 |
| 20260905082554 | 26 | 81 | 0.0 | 0.0 | 0.00 | 0.30 | 0.00 | 94 | 1012.5 |
| 20260905082051 | 26 | 81 | 0.0 | 0.0 | 0.00 | 0.30 | 0.00 | 94 | 1012.5 |
| 20260905081517 | 26 | 81 | 0.0 | 0.0 | 0.00 | 0.30 | 0.00 | 94 | 1012.5 |
| 20260905080941 | 26 | 81 | 0.0 | 0.0 | 0.00 | 0.30 | 0.00 | 94 | 1012.5 |
| 20260905080436 | 26 | 81 | 0.0 | 0.0 | 0.00 | 0.30 | 0.00 | 94 | 1012.5 |
| 20260905075933 | 26 | 81 | 0.0 | 0.0 | 0.00 | 0.30 | 0.00 | 94 | 1012.5 |
| 20260905075426 | 26 | 81 | 0.0 | 0.0 | 0.00 | 0.30 | 0.00 | 94 | 1012.5 |
| 20260905074854 | 26 | 81 | 0.0 | 0.0 | 0.00 | 0.30 | 0.00 | 94 | 1012.5 |
| 20260905074324 | 26 | 81 | 0.0 | 0.0 | 0.00 | 0.30 | 0.00 | 94 | 1012.5 |
| 20260905073750 | 26 | 81 | 0.0 | 0.0 | 0.00 | 0.30 | 0.00 | 94 | 1012.5 |
| 20260905073145 | 26 | 81 | 0.0 | 0.0 | 0.00 | 0.30 | 0.00 | 94 | 1012.5 |
| 20260905072608 | 26 | 81 | 0.0 | 0.0 | 0.00 | 0.30 | 0.00 | 94 | 1012.9 |
| 20260905072105 | 26 | 81 | 0.0 | 0.0 | 0.00 | 0.30 | 0.00 | 94 | 1012.9 |
| 20260905071602 | 26 | 81 | 0.0 | 0.0 | 0.00 | 0.30 | 0.00 | 94 | 1012.9 |
| 20260905071059 | 26 | 81 | 0.0 | 0.0 | 0.00 | 0.30 | 0.00 | 94 | 1012.9 |
| 20260905070556 | 26 | 81 | 0.0 | 0.0 | 0.00 | 0.30 | 0.00 | 94 | 1012.9 |
| 20260905070015 | 26 | 81 | 0.0 | 0.0 | 0.00 | 0.30 | 0.00 | 94 | 1013.2 |
| 20260905065512 | 26 | 81 | 0.0 | 0.0 | 0.00 | 0.30 | 0.00 | 94 | 1013.2 |
| 20260905064938 | 26 | 81 | 0.0 | 0.0 | 0.00 | 0.30 | 0.00 | 93 | 1013.2 |
| 20260905064404 | 26 | 81 | 0.0 | 0.0 | 0.00 | 0.30 | 0.00 | 93 | 1013.2 |
| 20260905063900 | 26 | 81 | 0.0 | 0.0 | 0.00 | 0.30 | 0.00 | 93 | 1013.2 |
| 20260905063358 | 26 | 81 | 0.0 | 0.0 | 0.00 | 0.30 | 0.00 | 93 | 1013.2 |
| 20260905062823 | 26 | 81 | 0.0 | 0.0 | 0.00 | 0.30 | 0.00 | 93 | 1013.2 |
| 20260905062320 | 26 | 81 | 0.0 | 0.0 | 0.00 | 0.30 | 0.00 | 93 | 1013.2 |
| 20260905061817 | 26 | 81 | 0.0 | 0.0 | 0.00 | 0.30 | 0.00 | 93 | 1013.2 |
| 20260905061236 | 26 | 81 | 0.0 | 0.0 | 0.00 | 0.30 | 0.00 | 94 | 1013.5 |
| 20260905060714 | 26 | 81 | 0.0 | 0.0 | 0.00 | 0.30 | 0.00 | 93 | 1013.5 |
| 20260905060212 | 26 | 81 | 0.0 | 0.0 | 0.00 | 0.30 | 0.00 | 93 | 1013.2 |
| 20260905055433 | 26 | 81 | 0.0 | 0.0 | 0.00 | 0.30 | 0.00 | 93 | 1013.2 |
| 20260905054930 | 26 | 81 | 0.0 | 0.0 | 0.00 | 0.30 | 0.00 | 93 | 1013.5 |
| 20260905054427 | 26 | 81 | 0.0 | 0.0 | 0.00 | 0.30 | 0.00 | 93 | 1013.5 |
| 20260905053925 | 26 | 81 | 0.0 | 0.0 | 0.00 | 0.30 | 0.00 | 93 | 1013.5 |
| 20260905053422 | 26 | 81 | 0.0 | 0.0 | 0.00 | 0.30 | 0.00 | 93 | 1013.5 |
| 20260905052920 | 26 | 81 | 0.0 | 0.0 | 0.00 | 0.30 | 0.00 | 93 | 1013.5 |
| 20260905052417 | 26 | 81 | 0.0 | 0.0 | 0.00 | 0.30 | 0.00 | 93 | 1013.5 |
| 20260905051913 | 26 | 81 | 0.0 | 0.0 | 0.00 | 0.30 | 0.30 | 93 | 1013.5 |
| 20260905051411 | 26 | 81 | 0.0 | 0.0 | 0.00 | 0.30 | 0.30 | 93 | 1013.5 |
| 20260905050908 | 26 | 81 | 0.0 | 0.0 | 0.00 | 0.30 | 0.30 | 93 | 1013.5 |
| 20260905050405 | 26 | 81 | 0.0 | 0.0 | 0.00 | 0.30 | 0.30 | 93 | 1013.2 |
| 20260905045830 | 26 | 81 | 0.0 | 0.0 | 0.00 | 0.30 | 0.30 | 93 | 1013.5 |
| 20260905045255 | 26 | 81 | 0.0 | 0.0 | 0.00 | 0.30 | 0.30 | 93 | 1013.5 |
| 20260905044752 | 26 | 81 | 0.0 | 0.0 | 0.00 | 0.30 | 0.30 | 93 | 1013.5 |
| 20260905044218 | 26 | 81 | 0.0 | 0.0 | 0.00 | 0.30 | 0.30 | 93 | 1013.5 |
| 20260905043642 | 27 | 81 | 0.0 | 0.0 | 0.00 | 0.30 | 0.30 | 93 | 1013.5 |
| 20260905043139 | 27 | 81 | 0.0 | 0.0 | 0.00 | 0.30 | 0.30 | 92 | 1013.5 |
| 20260905042636 | 27 | 81 | 0.0 | 0.0 | 0.00 | 0.30 | 0.30 | 92 | 1013.5 |
| 20260905042101 | 27 | 81 | 0.0 | 0.0 | 0.00 | 0.30 | 0.30 | 92 | 1013.5 |
| 20260905041555 | 27 | 81 | 0.0 | 0.0 | 0.00 | 0.30 | 0.30 | 92 | 1013.9 |
| 20260905041020 | 27 | 81 | 0.0 | 0.0 | 0.00 | 0.30 | 0.30 | 92 | 1013.5 |
| 20260905040517 | 27 | 81 | 0.0 | 0.0 | 0.00 | 0.30 | 0.30 | 92 | 1013.5 |
| 20260905040014 | 27 | 81 | 0.0 | 0.0 | 0.00 | 0.30 | 0.30 | 92 | 1013.9 |
| 20260905035440 | 27 | 81 | 0.0 | 0.0 | 0.00 | 0.30 | 0.30 | 92 | 1013.9 |
| 20260905034937 | 27 | 81 | 0.0 | 0.0 | 0.00 | 0.30 | 0.30 | 92 | 1013.9 |
| 20260905034435 | 27 | 81 | 0.0 | 0.0 | 0.00 | 0.30 | 0.30 | 92 | 1013.9 |
| 20260905033900 | 27 | 81 | 0.0 | 0.0 | 0.00 | 0.30 | 0.30 | 92 | 1013.9 |
| 20260905033357 | 27 | 81 | 0.0 | 0.0 | 0.00 | 0.30 | 0.30 | 92 | 1013.9 |
| 20260905032855 | 27 | 81 | 0.0 | 0.0 | 0.00 | 0.30 | 0.30 | 92 | 1013.9 |
| 20260905032321 | 27 | 81 | 0.0 | 0.0 | 0.00 | 0.30 | 0.30 | 92 | 1013.9 |
| 20260905031817 | 27 | 81 | 0.0 | 0.0 | 0.00 | 0.30 | 0.30 | 91 | 1013.9 |
| 20260905031314 | 27 | 81 | 0.0 | 0.0 | 0.00 | 0.30 | 0.30 | 91 | 1013.9 |
| 20260905030811 | 27 | 81 | 0.0 | 0.0 | 0.00 | 0.30 | 0.30 | 91 | 1013.9 |
| 20260905030248 | 27 | 81 | 0.0 | 0.0 | 0.00 | 0.30 | 0.30 | 91 | 1013.9 |
| 20260905025623 | 27 | 81 | 0.0 | 0.0 | 0.00 | 0.30 | 0.30 | 91 | 1013.9 |
| 20260905025101 | 27 | 81 | 0.0 | 0.0 | 0.00 | 0.30 | 0.30 | 91 | 1013.9 |
| 20260905024557 | 27 | 81 | 0.0 | 0.0 | 0.00 | 0.30 | 0.30 | 91 | 1013.5 |
| 20260905024035 | 27 | 81 | 0.0 | 0.0 | 0.00 | 0.30 | 0.30 | 91 | 1013.5 |
| 20260905023516 | 27 | 81 | 0.0 | 0.0 | 0.00 | 0.30 | 0.30 | 90 | 1013.5 |
| 20260905022839 | 27 | 81 | 0.0 | 0.0 | 0.00 | 0.30 | 0.30 | 90 | 1013.5 |
| 20260905022336 | 27 | 81 | 0.0 | 0.0 | 0.00 | 0.30 | 0.30 | 90 | 1013.5 |
| 20260905021800 | 27 | 81 | 0.0 | 0.0 | 0.00 | 0.30 | 0.30 | 90 | 1013.5 |
| 20260905021226 | 27 | 81 | 0.0 | 0.0 | 0.00 | 0.30 | 0.30 | 90 | 1013.5 |
| 20260905020722 | 27 | 81 | 0.0 | 0.0 | 0.00 | 0.30 | 0.30 | 89 | 1013.2 |
| 20260905020219 | 27 | 81 | 0.0 | 0.0 | 0.00 | 0.30 | 0.30 | 89 | 1013.2 |
| 20260905015716 | 27 | 81 | 0.0 | 0.0 | 0.00 | 0.30 | 0.30 | 89 | 1013.2 |
| 20260905015214 | 28 | 81 | 0.0 | 0.0 | 0.00 | 0.30 | 0.30 | 89 | 1013.2 |
| 20260905014711 | 28 | 81 | 0.0 | 0.0 | 0.00 | 0.30 | 0.30 | 89 | 1013.2 |
| 20260905014207 | 28 | 81 | 0.0 | 0.0 | 0.00 | 0.30 | 0.30 | 89 | 1013.2 |
| 20260905013704 | 28 | 81 | 0.0 | 0.0 | 0.00 | 0.30 | 0.30 | 89 | 1013.2 |
| 20260905013201 | 28 | 81 | 0.0 | 0.0 | 0.00 | 0.30 | 0.30 | 89 | 1013.2 |
| 20260905012659 | 28 | 81 | 0.0 | 0.0 | 0.00 | 0.30 | 0.30 | 88 | 1013.2 |
| 20260905012156 | 28 | 81 | 0.0 | 0.0 | 0.00 | 0.30 | 0.30 | 88 | 1013.2 |
| 20260905011652 | 28 | 81 | 0.0 | 0.0 | 0.00 | 0.30 | 0.30 | 88 | 1012.9 |
| 20260905011149 | 28 | 81 | 0.0 | 0.0 | 0.00 | 0.30 | 0.30 | 88 | 1012.9 |
| 20260905010646 | 28 | 81 | 0.0 | 0.0 | 0.00 | 0.30 | 0.30 | 88 | 1012.9 |
| 20260905010124 | 28 | 81 | 0.0 | 1.6 | 0.00 | 0.30 | 0.30 | 88 | 1012.9 |
| 20260905005621 | 28 | 81 | 0.0 | 1.6 | 0.00 | 0.30 | 0.30 | 88 | 1012.9 |
| 20260905005100 | 28 | 81 | 0.0 | 1.6 | 0.00 | 0.30 | 0.30 | 87 | 1012.9 |
| 20260905004557 | 29 | 81 | 1.6 | 1.6 | 0.00 | 0.30 | 0.30 | 87 | 1012.5 |
| 20260905004054 | 29 | 81 | 0.0 | 1.6 | 0.00 | 0.30 | 0.30 | 87 | 1012.5 |
| 20260905003550 | 29 | 81 | 0.0 | 1.6 | 0.00 | 0.30 | 0.30 | 87 | 1012.5 |
| 20260905003028 | 29 | 81 | 1.6 | 3.2 | 0.00 | 0.30 | 0.30 | 87 | 1012.5 |
| 20260905002454 | 29 | 81 | 0.0 | 3.2 | 0.00 | 0.30 | 0.30 | 87 | 1012.5 |
| 20260905001950 | 30 | 81 | 0.0 | 3.2 | 0.00 | 0.30 | 0.30 | 87 | 1012.5 |
| 20260905001447 | 30 | 81 | 1.6 | 8.0 | 0.00 | 0.30 | 0.30 | 86 | 1012.5 |
| 20260905000930 | 30 | 81 | 1.6 | 8.0 | 0.00 | 0.30 | 0.30 | 86 | 1012.5 |
| 20260905000355 | 30 | 81 | 1.6 | 8.0 | 0.00 | 0.30 | 0.30 | 85 | 1012.5 |
| 20260904235834 | 30 | 254 | 1.6 | 3.2 | 0.00 | 0.30 | 0.30 | 85 | 1012.5 |
| 20260904235331 | 30 | 327 | 1.6 | 3.2 | 0.00 | 0.30 | 0.30 | 84 | 1012.5 |
| 20260904234757 | 30 | 237 | 1.6 | 3.2 | 0.00 | 0.30 | 0.30 | 85 | 1012.5 |
| 20260904234235 | 30 | 237 | 1.6 | 4.8 | 0.00 | 0.30 | 0.30 | 85 | 1012.5 |
| 20260904233732 | 31 | 233 | 1.6 | 4.8 | 0.00 | 0.30 | 0.30 | 85 | 1012.5 |
| 20260904233210 | 31 | 233 | 1.6 | 4.8 | 0.00 | 0.30 | 0.30 | 85 | 1012.5 |
| 20260904232707 | 31 | 236 | 1.6 | 4.8 | 0.00 | 0.30 | 0.30 | 84 | 1012.5 |
| 20260904232204 | 31 | 5 | 1.6 | 4.8 | 0.00 | 0.30 | 0.30 | 84 | 1012.5 |
| 20260904231701 | 31 | 6 | 1.6 | 4.8 | 0.00 | 0.30 | 0.30 | 84 | 1012.5 |
| 20260904231158 | 31 | 10 | 3.2 | 4.8 | 0.00 | 0.30 | 0.30 | 83 | 1012.5 |
| 20260904230032 | 31 | 182 | 1.6 | 3.2 | 0.00 | 0.30 | 0.30 | 83 | 1012.5 |
| 20260904225520 | 31 | 171 | 1.6 | 3.2 | 0.00 | 0.30 | 0.30 | 83 | 1012.5 |
| 20260904225016 | 31 | 191 | 1.6 | 3.2 | 0.00 | 0.30 | 0.30 | 82 | 1012.5 |
| 20260904224500 | 31 | 340 | 0.0 | 3.2 | 0.00 | 0.30 | 0.30 | 83 | 1012.5 |
| 20260904223945 | 31 | 356 | 1.6 | 6.4 | 0.00 | 0.30 | 0.30 | 83 | 1012.5 |
| 20260904223442 | 31 | 36 | 1.6 | 6.4 | 0.00 | 0.30 | 0.30 | 81 | 1012.5 |
| 20260904222907 | 31 | 12 | 1.6 | 6.4 | 0.00 | 0.30 | 0.30 | 82 | 1012.5 |
| 20260904222404 | 31 | 335 | 3.2 | 4.8 | 0.00 | 0.30 | 0.30 | 83 | 1012.5 |
| 20260904221901 | 31 | 331 | 1.6 | 3.2 | 0.00 | 0.30 | 0.30 | 83 | 1012.5 |
| 20260904221358 | 31 | 331 | 1.6 | 3.2 | 0.00 | 0.30 | 0.30 | 83 | 1012.2 |
| 20260904220854 | 31 | 331 | 1.6 | 3.2 | 0.00 | 0.30 | 0.30 | 82 | 1012.2 |
| 20260904220319 | 31 | 294 | 1.6 | 4.8 | 0.00 | 0.30 | 0.30 | 83 | 1012.5 |
| 20260904215757 | 31 | 302 | 0.0 | 6.4 | 0.00 | 0.30 | 0.30 | 84 | 1012.5 |
| 20260904215254 | 31 | 302 | 1.6 | 8.0 | 0.00 | 0.30 | 0.30 | 83 | 1012.5 |
| 20260904214751 | 31 | 59 | 1.6 | 8.0 | 0.00 | 0.30 | 0.30 | 82 | 1012.5 |
| 20260904214247 | 31 | 281 | 3.2 | 9.7 | 0.00 | 0.30 | 0.30 | 82 | 1012.5 |
| 20260904213745 | 31 | 276 | 1.6 | 9.7 | 0.00 | 0.30 | 0.30 | 84 | 1012.5 |
| 20260904213241 | 31 | 67 | 4.8 | 9.7 | 0.00 | 0.30 | 0.30 | 84 | 1012.9 |
| 20260904212738 | 31 | 46 | 3.2 | 8.0 | 0.00 | 0.30 | 0.30 | 85 | 1012.9 |
| 20260904212203 | 30 | 54 | 3.2 | 6.4 | 0.00 | 0.30 | 0.30 | 85 | 1012.9 |
| 20260904211558 | 30 | 35 | 3.2 | 6.4 | 0.00 | 0.30 | 0.30 | 85 | 1012.9 |
| 20260904211055 | 30 | 20 | 1.6 | 3.2 | 0.00 | 0.30 | 0.30 | 88 | 1012.9 |
| 20260904210536 | 29 | 29 | 1.6 | 4.8 | 0.00 | 0.30 | 0.30 | 86 | 1012.9 |
| 20260904210014 | 30 | 46 | 0.0 | 4.8 | 0.00 | 0.30 | 0.30 | 87 | 1013.2 |
| 20260904205511 | 30 | 53 | 0.0 | 4.8 | 0.00 | 0.30 | 0.30 | 88 | 1013.2 |
| 20260904205008 | 30 | 52 | 3.2 | 6.4 | 0.00 | 0.30 | 0.30 | 86 | 1013.2 |
| 20260904204434 | 30 | 65 | 1.6 | 6.4 | 0.00 | 0.30 | 0.30 | 87 | 1013.2 |
| 20260904203931 | 29 | 75 | 1.6 | 6.4 | 0.00 | 0.30 | 0.30 | 88 | 1013.2 |
| 20260904203408 | 28 | 28 | 3.2 | 6.4 | 0.00 | 0.30 | 0.30 | 89 | 1013.2 |
| 20260904202904 | 28 | 37 | 1.6 | 4.8 | 0.00 | 0.30 | 0.30 | 91 | 1013.2 |
| 20260904202401 | 28 | 108 | 1.6 | 4.8 | 0.00 | 0.30 | 0.30 | 91 | 1013.5 |
| 20260904201858 | 28 | 108 | 0.0 | 4.8 | 0.00 | 0.30 | 0.30 | 91 | 1013.5 |
| 20260904201353 | 27 | 108 | 1.6 | 4.8 | 0.00 | 0.33 | 0.30 | 89 | 1013.5 |
| 20260904200818 | 27 | 227 | 1.6 | 3.2 | 0.03 | 0.33 | 0.30 | 90 | 1013.9 |
| 20260904200256 | 27 | 226 | 0.0 | 3.2 | 0.08 | 0.38 | 0.30 | 90 | 1013.5 |
| 20260904195737 | 27 | 226 | 0.0 | 4.8 | 0.13 | 0.48 | 0.30 | 89 | 1013.5 |
| 20260904195234 | 28 | 226 | 0.0 | 4.8 | 0.20 | 0.56 | 0.30 | 88 | 1013.5 |
| 20260904194700 | 28 | 226 | 0.0 | 4.8 | 0.30 | 0.64 | 0.30 | 88 | 1013.9 |
| 20260904194139 | 28 | 226 | 1.6 | 9.7 | 0.30 | 0.66 | 0.30 | 91 | 1013.9 |
| 20260904193636 | 28 | 225 | 0.0 | 9.7 | 0.30 | 0.71 | 0.30 | 91 | 1013.9 |
| 20260904193102 | 27 | 225 | 0.0 | 17.7 | 0.30 | 0.71 | 0.30 | 90 | 1013.9 |
| 20260904192559 | 27 | 260 | 4.8 | 17.7 | 0.30 | 0.71 | 0.30 | 90 | 1014.2 |
| 20260904192056 | 27 | 264 | 3.2 | 17.7 | 0.30 | 0.71 | 0.30 | 90 | 1014.2 |
| 20260904191521 | 27 | 256 | 8.0 | 17.7 | 0.30 | 0.71 | 0.30 | 88 | 1014.2 |
| 20260904191018 | 27 | 155 | 1.6 | 4.8 | 0.30 | 0.71 | 0.30 | 89 | 1014.6 |
| 20260904190438 | 28 | 119 | 1.6 | 3.2 | 0.25 | 0.66 | 0.25 | 87 | 1014.6 |
| 20260904185935 | 30 | 82 | 1.6 | 3.2 | 0.18 | 0.58 | 0.18 | 85 | 1014.6 |
| 20260904185432 | 31 | 82 | 1.6 | 6.4 | 0.13 | 0.53 | 0.13 | 84 | 1014.6 |
| 20260904184858 | 32 | 82 | 1.6 | 8.0 | 0.03 | 0.43 | 0.03 | 80 | 1014.6 |